Location: Newark
(44.2003°N, 3.2583°E)
Time: 10:51:20
(UTC+00:00)

Explorer 11/Cluster Stage 4 - All Passes

Search period start: 15 October 2019 00:00
Search period end: 25 October 2019 00:00
Orbit: 467 x 1259 km, 28.8° (Epoch: 14 October)

Date Brightness Start Highest point End Pass type
(mag) Time Alt. Az. Time Alt. Az. Time Alt. Az.
15 Oct - 11:24:15 10° S 11:25:12 10° SSE 11:26:11 10° SSE daylight
15 Oct - 13:09:29 10° SW 13:12:41 16° S 13:16:16 10° SE daylight
15 Oct - 14:57:36 10° SW 15:00:29 14° SSW 15:03:36 10° SSE daylight
16 Oct - 11:13:41 10° S 11:14:28 10° SSE 11:15:16 10° SSE daylight
16 Oct - 12:59:08 10° SSW 13:01:57 15° S 13:05:03 10° SSE daylight
16 Oct - 14:47:48 10° SSW 14:49:41 11° SSW 14:51:40 10° S daylight
17 Oct - 11:03:19 10° S 11:03:45 10° SSE 11:04:11 10° SSE daylight
17 Oct - 12:48:53 10° SSW 12:51:13 13° S 12:53:46 10° SSE daylight
18 Oct - 12:38:49 10° SSW 12:40:31 12° S 12:42:19 10° SSE daylight
19 Oct - 12:29:28 10° S 12:29:49 10° S 12:30:09 10° S daylight
